EA5AFP-10 Weather Reports


time (UTC)temp
C
wind
direction
speed
KPH
gust
KPH
rain 1hr
cm
rain 24hr
cm
rain mn
cm
humidity
%
barometer
mb
20260502180527 18 135 11.3 16.1 0.00 0.00 0.00 8 1013.3
20260502180117 18 112 9.7 16.1 0.00 0.00 0.00 8 1013.3
20260502170203 19 90 9.7 14.5 0.00 0.00 0.00 8 1013.0
20260502164053 19 90 8.0 9.7 0.00 0.00 0.00 8 1013.3
20260502163707 19 135 11.3 16.1 0.00 0.00 0.00 8 1013.2
20260502163633 19 135 11.3 17.7 0.00 0.00 0.00 8 1013.1
20260502163208 19 112 11.3 14.5 0.00 0.00 0.00 8 1013.2
20260502162713 19 112 11.3 16.1 0.00 0.00 0.00 8 1013.3
20260502162459 19 112 12.9 17.7 0.00 0.00 0.00 8 1013.3
20260502162405 19 112 14.5 17.7 0.00 0.00 0.00 8 1013.2
20260502162000 19 90 14.5 20.9 0.00 0.00 0.00 8 1013.2
20260502161557 20 90 11.3 16.1 0.00 0.00 0.00 8 1013.3
20260502161515 20 90 12.9 16.1 0.00 0.00 0.00 8 1013.2
20260502161117 20 112 9.7 14.5 0.00 0.00 0.00 8 1013.3
20260502160630 19 67 11.3 19.3 0.00 0.00 0.00 8 1013.5
20260502160201 20 112 11.3 19.3 0.00 0.00 0.00 8 1013.3
20260502152338 20 112 14.5 17.7 0.00 0.00 0.00 8 1013.9
20260502152245 20 112 6.4 12.9 0.00 0.00 0.00 8 1013.9
20260502151939 20 112 9.7 14.5 0.00 0.00 0.00 8 1013.6
20260502151444 20 112 14.5 17.7 0.00 0.00 0.00 8 1013.8
20260502151009 20 135 14.5 19.3 0.00 0.00 0.00 8 1014.0
20260502150530 20 90 14.5 19.3 0.00 0.00 0.00 8 1014.3
20260502150119 20 112 9.7 14.5 0.00 0.00 0.00 8 1014.0
20260502130456 20 90 14.5 20.9 0.00 0.00 0.00 8 1015.4
20260502123538 19 112 8.0 14.5 0.00 0.00 0.00 8 1015.6
20260502123130 20 112 9.7 14.5 0.00 0.00 0.00 8 1015.4
20260502123127 20 90 9.7 16.1 0.00 0.00 0.00 8 1015.3
20260502122712 19 90 11.3 16.1 0.00 0.00 0.00 8 1015.7
20260502122245 19 67 12.9 17.7 0.00 0.00 0.00 8 1015.7
20260502121750 20 67 9.7 16.1 0.00 0.00 0.00 8 1015.7
20260502121347 19 67 11.3 14.5 0.00 0.00 0.00 8 1015.6
20260502120944 19 90 11.3 16.1 0.00 0.00 0.00 8 1015.7
20260502120536 19 112 6.4 9.7 0.00 0.00 0.00 8 1015.7
20260502120120 20 67 8.0 12.9 0.00 0.00 0.00 8 1015.7
20260502115710 19 112 12.9 17.7 0.00 0.00 0.00 8 1015.9
20260502115317 20 90 12.9 17.7 0.00 0.00 0.00 8 1015.8
20260502115313 20 67 12.9 16.1 0.00 0.00 0.00 8 1015.8
20260502114913 20 67 9.7 14.5 0.00 0.00 0.00 8 1016.0
20260502114432 20 90 14.5 20.9 0.00 0.00 0.00 8 1015.5
20260502114000 20 90 11.3 16.1 0.00 0.00 0.00 8 1015.6
20260502113554 20 90 14.5 17.7 0.00 0.00 0.00 8 1015.9
20260502113122 20 112 9.7 14.5 0.00 0.00 0.00 8 1015.8
20260502112714 20 67 14.5 19.3 0.00 0.00 0.00 8 1015.8
20260502112712 20 67 14.5 19.3 0.00 0.00 0.00 8 1015.8
20260502112342 20 90 9.7 12.9 0.00 0.00 0.00 8 1016.0
20260502111846 20 90 6.4 12.9 0.00 0.00 0.00 8 1016.2
20260502111358 20 135 9.7 14.5 0.00 0.00 0.00 8 1016.1
20260502110958 19 90 6.4 9.7 0.00 0.00 0.00 8 1016.2
20260502110501 19 67 4.8 9.7 0.00 0.00 0.00 8 1016.3
20260502110033 18 112 9.7 12.9 0.00 0.00 0.00 8 1016.3
20260502105623 18 90 6.4 9.7 0.00 0.00 0.00 9 1016.5
20260502105119 18 90 4.8 6.4 0.00 0.00 0.00 9 1016.6
20260502104646 18 112 4.8 6.4 0.00 0.00 0.00 9 1016.5
20260502104215 18 112 8.0 9.7 0.00 0.00 0.00 9 1016.6
20260502103748 18 90 4.8 6.4 0.00 0.00 0.00 9 1016.7
20260502103336 18 90 6.4 9.7 0.00 0.00 0.00 9 1016.6
20260502103327 18 112 9.7 12.9 0.00 0.00 0.00 9 1016.6
20260502102832 18 90 8.0 12.9 0.00 0.00 0.00 9 1016.9
20260502102504 18 112 4.8 6.4 0.00 0.00 0.00 9 1016.9
20260502102415 18 112 6.4 9.7 0.00 0.00 0.00 9 1016.6
20260502102002 18 90 6.4 9.7 0.00 0.00 0.00 9 1016.8
20260502101518 18 112 9.7 14.5 0.00 0.00 0.00 8 1016.6
20260502101115 18 112 9.7 14.5 0.00 0.00 0.00 8 1016.6
20260502100645 18 112 9.7 14.5 0.00 0.00 0.00 8 1016.7
20260502100157 18 135 11.3 14.5 0.00 0.00 0.00 8 1016.5
20260502091256 19 90 1.6 4.8 0.00 0.00 0.00 8 1016.9
20260502091102 19 67 1.6 4.8 0.00 0.00 0.00 8 1016.8
20260502090814 19 90 0.0 3.2 0.00 0.00 0.00 8 1017.0
20260502090356 18 90 6.4 6.4 0.00 0.00 0.00 8 1016.9
20260502071058 17 270 3.2 3.2 0.00 0.00 0.00 9 1017.0
20260502070609 17 247 3.2 4.8 0.00 0.00 0.00 9 1017.1
20260502070537 17 292 3.2 6.4 0.00 0.00 0.00 9 1017.0
20260502070121 18 337 0.0 3.2 0.00 0.00 0.00 9 1017.0
20260502065709 17 0 0.0 0.0 0.00 0.00 0.00 9 1017.0
20260502065707 17 0 0.0 0.0 0.00 0.00 0.00 9 1017.0
20260502065601 17 0 0.0 0.0 0.00 0.00 0.00 9 1017.0
20260502065108 17 270 0.0 3.2 0.00 0.00 0.00 9 1017.0
20260502064619 17 292 0.0 1.6 0.00 0.00 0.00 9 1016.9
20260502064612 17 292 0.0 3.2 0.00 0.00 0.00 9 1017.1
20260502064126 17 270 0.0 3.2 0.00 0.00 0.00 9 1016.9
20260502063657 17 292 1.6 3.2 0.00 0.00 0.00 9 1017.0
20260502063206 17 292 1.6 3.2 0.00 0.00 0.00 9 1016.9
20260502062713 17 292 0.0 1.6 0.00 0.00 0.00 9 1017.0
20260502062711 17 292 0.0 1.6 0.00 0.00 0.00 9 1017.0
20260502062439 17 292 0.0 1.6 0.00 0.00 0.00 9 1017.2
20260502062256 16 292 0.0 1.6 0.00 0.00 0.00 9 1017.2
20260502062014 16 292 0.0 3.2 0.00 0.00 0.00 9 1017.2
20260502061534 16 270 0.0 1.6 0.00 0.00 0.00 9 1017.2
20260502061401 16 270 1.6 3.2 0.00 0.00 0.00 9 1017.2
20260502061057 16 270 1.6 3.2 0.00 0.00 0.00 9 1017.3
20260502060608 16 270 3.2 3.2 0.00 0.00 0.00 9 1017.1
20260502060534 16 270 3.2 3.2 0.00 0.00 0.00 9 1017.1
20260502060119 16 270 1.6 3.2 0.00 0.00 0.00 9 1017.1
20260502055711 16 270 1.6 3.2 0.00 0.00 0.00 9 1016.8
20260502055456 16 270 0.0 1.6 0.00 0.00 0.00 9 1016.8
20260502055305 16 247 0.0 1.6 0.00 0.00 0.00 9 1017.0
20260502055001 16 247 1.6 3.2 0.00 0.00 0.00 9 1016.8
20260502054535 16 0 0.0 0.0 0.00 0.00 0.00 9 1016.9
20260502054407 16 270 0.0 1.6 0.00 0.00 0.00 9 1016.8
20260502054116 16 270 0.0 1.6 0.00 0.00 0.00 9 1016.9
20260502053616 16 0 0.0 1.6 0.00 0.00 0.00 9 1017.0
20260502053541 16 0 0.0 1.6 0.00 0.00 0.00 9 1017.0
20260502053127 16 270 1.6 3.2 0.00 0.00 0.00 9 1016.9
20260502052718 16 270 1.6 3.2 0.00 0.00 0.00 9 1016.8
20260502052716 16 270 1.6 3.2 0.00 0.00 0.00 9 1016.8
20260502052442 16 270 1.6 3.2 0.00 0.00 0.00 9 1016.8
20260502052016 16 270 3.2 3.2 0.00 0.00 0.00 9 1016.6
20260502051532 16 270 1.6 3.2 0.00 0.00 0.00 9 1016.7
20260502051102 16 0 0.0 1.6 0.00 0.00 0.00 9 1016.7
20260502050610 16 0 0.0 0.0 0.00 0.00 0.00 9 1016.8
20260502050538 16 0 0.0 0.0 0.00 0.00 0.00 9 1016.7
20260502050122 16 0 0.0 0.0 0.00 0.00 0.00 9 1016.6
20260502045710 16 0 0.0 0.0 0.00 0.00 0.00 9 1016.6
20260502045432 16 0 0.0 0.0 0.00 0.00 0.00 9 1016.5
20260502045327 16 0 0.0 0.0 0.00 0.00 0.00 9 1016.6
20260502045020 16 0 0.0 0.0 0.00 0.00 0.00 9 1016.7
20260502044524 16 270 1.6 3.2 0.00 0.00 0.00 9 1016.8
20260502044424 16 270 1.6 3.2 0.00 0.00 0.00 9 1016.9
20260502044059 16 0 0.0 0.0 0.00 0.00 0.00 9 1016.8
20260502043620 16 0 0.0 0.0 0.00 0.00 0.00 9 1016.7
20260502043146 16 0 0.0 0.0 0.00 0.00 0.00 9 1016.8
20260502042716 16 0 0.0 0.0 0.00 0.00 0.00 9 1016.8
20260502042308 16 270 0.0 1.6 0.00 0.00 0.00 9 1016.9
20260502041908 16 0 0.0 0.0 0.00 0.00 0.00 9 1016.9
20260502041428 16 0 0.0 1.6 0.00 0.00 0.00 9 1017.0
20260502041404 16 270 0.0 3.2 0.00 0.00 0.00 9 1017.0
20260502041023 16 0 0.0 1.6 0.00 0.00 0.00 9 1017.0
20260502040529 16 0 0.0 0.0 0.00 0.00 0.00 9 1017.1
20260502040118 16 247 0.0 1.6 0.00 0.00 0.00 9 1017.1
20260502035713 16 270 1.6 3.2 0.00 0.00 0.00 9 1017.2
20260502035341 16 270 3.2 3.2 0.00 0.00 0.00 9 1017.3
20260502034851 16 270 1.6 1.6 0.00 0.00 0.00 9 1017.4
20260502034439 16 270 0.0 1.6 0.00 0.00 0.00 9 1017.3
20260502034035 16 270 1.6 3.2 0.00 0.00 0.00 9 1017.3
20260502033621 16 292 1.6 3.2 0.00 0.00 0.00 9 1017.3
20260502033126 16 292 1.6 1.6 0.00 0.00 0.00 9 1017.4
20260502032710 16 292 1.6 3.2 0.00 0.00 0.00 9 1017.3
20260502032444 16 292 1.6 3.2 0.00 0.00 0.00 9 1017.5
20260502032002 16 292 0.0 1.6 0.00 0.00 0.00 9 1017.4
20260502031656 16 292 1.6 3.2 0.00 0.00 0.00 9 1017.4
20260502031514 16 270 1.6 3.2 0.00 0.00 0.00 9 1017.4
20260502031043 16 270 4.8 4.8 0.00 0.00 0.00 9 1017.4
20260502030657 16 270 3.2 4.8 0.00 0.00 0.00 9 1017.3
20260502030624 16 270 3.2 4.8 0.00 0.00 0.00 9 1017.3
20260502030159 16 0 0.0 0.0 0.00 0.00 0.00 9 1017.2
20260502025708 16 0 0.0 0.0 0.00 0.00 0.00 9 1017.0
20260502025706 16 0 0.0 0.0 0.00 0.00 0.00 9 1017.0
20260502025704 16 0 0.0 0.0 0.00 0.00 0.00 9 1017.0
20260502025548 16 0 0.0 0.0 0.00 0.00 0.00 9 1017.0
20260502025405 16 0 0.0 0.0 0.00 0.00 0.00 9 1017.0
20260502025000 16 202 0.0 3.2 0.00 0.00 0.00 9 1017.2
20260502024556 16 0 0.0 0.0 0.00 0.00 0.00 9 1017.1
20260502024117 16 292 0.0 1.6 0.00 0.00 0.00 9 1017.1
20260502023702 16 270 1.6 3.2 0.00 0.00 0.00 9 1017.1
20260502023630 16 270 1.6 3.2 0.00 0.00 0.00 9 1017.1
20260502023201 16 292 3.2 3.2 0.00 0.00 0.00 9 1017.1
20260502022713 16 270 1.6 1.6 0.00 0.00 0.00 9 1017.3
20260502022711 16 270 1.6 1.6 0.00 0.00 0.00 9 1017.3
20260502022535 16 270 1.6 1.6 0.00 0.00 0.00 9 1017.3
20260502022516 16 270 1.6 3.2 0.00 0.00 0.00 9 1017.2
20260502022053 16 0 0.0 0.0 0.00 0.00 0.00 9 1017.3
20260502021602 16 0 0.0 0.0 0.00 0.00 0.00 9 1017.3
20260502021111 15 0 0.0 0.0 0.00 0.00 0.00 9 1017.4
20260502020642 15 0 0.0 0.0 0.00 0.00 0.00 9 1017.3
20260502020151 15 292 0.0 1.6 0.00 0.00 0.00 9 1017.4
20260502015657 15 270 3.2 4.8 0.00 0.00 0.00 9 1017.6
20260502015516 15 270 3.2 4.8 0.00 0.00 0.00 9 1017.6
20260502015041 15 225 3.2 3.2 0.00 0.00 0.00 9 1017.4
20260502014606 15 202 0.0 3.2 0.00 0.00 0.00 9 1017.5
20260502014553 15 202 0.0 3.2 0.00 0.00 0.00 9 1017.5
20260502014122 15 202 1.6 3.2 0.00 0.00 0.00 9 1017.6
20260502013631 15 0 0.0 0.0 0.00 0.00 0.00 9 1017.5
20260502013203 15 270 0.0 1.6 0.00 0.00 0.00 9 1017.7
20260502012715 15 270 0.0 1.6 0.00 0.00 0.00 9 1017.7
20260502012713 15 270 0.0 1.6 0.00 0.00 0.00 9 1017.7
20260502012419 15 225 1.6 3.2 0.00 0.00 0.00 9 1017.7
20260502012326 15 225 1.6 3.2 0.00 0.00 0.00 9 1017.7
20260502011902 16 0 0.0 0.0 0.00 0.00 0.00 9 1017.8
20260502011504 16 0 0.0 0.0 0.00 0.00 0.00 9 1017.7
20260502011428 16 0 0.0 0.0 0.00 0.00 0.00 9 1017.7
20260502011008 16 0 0.0 0.0 0.00 0.00 0.00 9 1017.7
20260502010513 16 0 0.0 0.0 0.00 0.00 0.00 9 1017.9
20260502010504 16 0 0.0 0.0 0.00 0.00 0.00 9 1018.0
20260502010046 15 0 0.0 1.6 0.00 0.00 0.00 9 1018.1
20260502005633 16 292 0.0 1.6 0.00 0.00 0.00 9 1017.9
20260502005455 16 292 0.0 1.6 0.00 0.00 0.00 9 1017.9
20260502005218 15 292 1.6 1.6 0.00 0.00 0.00 9 1018.1
20260502004758 16 315 1.6 3.2 0.00 0.00 0.00 9 1018.1
20260502004540 16 292 1.6 3.2 0.00 0.00 0.00 9 1017.9
20260502004357 16 292 3.2 3.2 0.00 0.00 0.00 9 1018.0
20260502003949 16 0 0.0 0.0 0.00 0.00 0.00 9 1018.0
20260502003540 16 0 0.0 0.0 0.00 0.00 0.00 9 1018.1
20260502003123 16 0 0.0 0.0 0.00 0.00 0.00 9 1018.0
20260502002711 16 0 0.0 0.0 0.00 0.00 0.00 9 1018.1
20260502002414 16 292 0.0 1.6 0.00 0.00 0.00 9 1018.2
20260502001954 16 292 1.6 3.2 0.00 0.00 0.00 9 1018.2
20260502001535 16 292 3.2 4.8 0.00 0.00 0.00 9 1018.1
20260502001051 16 292 3.2 3.2 0.00 0.00 0.00 9 1018.3
20260502000634 16 270 3.2 3.2 0.00 0.00 0.00 9 1018.5
20260502000208 16 292 1.6 3.2 0.00 0.00 0.00 9 1018.6
20260501235714 16 270 3.2 3.2 0.00 0.00 0.00 9 1018.6
20260501235434 16 270 3.2 3.2 0.00 0.00 0.00 9 1018.5
20260501234937 16 270 1.6 3.2 0.00 0.00 0.00 9 1018.7
20260501234520 16 0 0.0 1.6 0.00 0.00 0.00 9 1018.6
20260501234036 16 0 0.0 0.0 0.00 0.00 0.00 9 1018.6
20260501233619 16 0 0.0 1.6 0.00 0.00 0.00 9 1018.7
20260501233154 16 0 0.0 0.0 0.00 0.00 0.00 9 1018.6
20260501232659 16 0 0.0 0.0 0.00 0.00 0.00 9 1018.7
20260501232442 16 0 0.0 0.0 0.00 0.00 0.00 9 1018.7
20260501232009 16 0 0.0 0.0 0.00 0.00 0.00 9 1018.9
20260501231700 16 0 0.0 0.0 0.00 0.00 0.00 9 1018.9
20260501231519 16 0 0.0 0.0 0.00 0.00 0.00 9 1018.8
20260501231047 16 292 0.0 1.6 0.00 0.00 0.00 9 1018.8
20260501230701 16 292 1.6 3.2 0.00 0.00 0.00 9 1018.8
20260501230629 16 292 1.6 3.2 0.00 0.00 0.00 9 1018.7
20260501230204 16 292 3.2 4.8 0.00 0.00 0.00 9 1018.8
20260501225710 16 270 3.2 3.2 0.00 0.00 0.00 9 1018.8
20260501225242 16 270 3.2 4.8 0.00 0.00 0.00 9 1018.7
20260501225202 16 270 3.2 3.2 0.00 0.00 0.00 9 1018.8
20260501224758 16 270 1.6 3.2 0.00 0.00 0.00 9 1018.8
20260501224326 16 225 1.6 3.2 0.00 0.00 0.00 9 1018.8
20260501224257 16 225 3.2 3.2 0.00 0.00 0.00 9 1018.7
20260501223835 16 202 3.2 3.2 0.00 0.00 0.00 9 1018.7
20260501223402 16 202 1.6 3.2 0.00 0.00 0.00 9 1018.6
20260501222916 16 0 0.0 0.0 0.00 0.00 0.00 9 1018.7
20260501222440 16 202 0.0 1.6 0.00 0.00 0.00 9 1018.7
20260501222016 16 202 0.0 3.2 0.00 0.00 0.00 9 1018.7
20260501221531 16 202 0.0 1.6 0.00 0.00 0.00 9 1018.7
20260501221101 16 202 0.0 1.6 0.00 0.00 0.00 9 1018.9
20260501220609 16 202 4.8 4.8 0.00 0.00 0.00 9 1018.9
20260501220537 16 202 3.2 4.8 0.00 0.00 0.00 9 1019.1
20260501220121 15 202 1.6 3.2 0.00 0.00 0.00 9 1019.0
20260501215706 16 202 1.6 3.2 0.00 0.00 0.00 9 1019.0
20260501215531 16 202 3.2 4.8 0.00 0.00 0.00 9 1019.0
20260501215445 16 202 3.2 4.8 0.00 0.00 0.00 9 1019.0
20260501214959 16 202 1.6 3.2 0.00 0.00 0.00 9 1019.1
20260501214621 16 180 1.6 3.2 0.00 0.00 0.00 9 1018.9
20260501214510 16 180 0.0 3.2 0.00 0.00 0.00 9 1019.0
20260501214037 16 0 0.0 0.0 0.00 0.00 0.00 9 1019.1
20260501213656 16 0 0.0 0.0 0.00 0.00 0.00 9 1019.1
20260501213620 16 0 0.0 0.0 0.00 0.00 0.00 9 1019.1
20260501213154 16 0 0.0 0.0 0.00 0.00 0.00 9 1019.0
20260501212701 17 180 0.0 3.2 0.00 0.00 0.00 9 1019.0
20260501212659 17 180 0.0 3.2 0.00 0.00 0.00 9 1019.0
20260501212559 17 180 0.0 3.2 0.00 0.00 0.00 9 1019.0
20260501212405 17 0 0.0 0.0 0.00 0.00 0.00 9 1019.1
20260501211942 17 180 1.6 1.6 0.00 0.00 0.00 9 1019.0
20260501211659 17 180 3.2 4.8 0.00 0.00 0.00 9 1019.1
20260501211520 17 135 3.2 3.2 0.00 0.00 0.00 9 1019.2
20260501211052 17 0 0.0 0.0 0.00 0.00 0.00 9 1019.2
20260501210636 17 0 0.0 1.6 0.00 0.00 0.00 9 1019.2
20260501210202 17 90 1.6 3.2 0.00 0.00 0.00 9 1019.1
20260501205708 17 90 0.0 1.6 0.00 0.00 0.00 9 1019.2
20260501205430 17 0 0.0 0.0 0.00 0.00 0.00 9 1019.1
20260501205411 17 90 0.0 1.6 0.00 0.00 0.00 9 1019.0
20260501204916 17 0 0.0 0.0 0.00 0.00 0.00 9 1019.2
20260501204552 17 0 0.0 1.6 0.00 0.00 0.00 9 1019.2
20260501204442 17 90 1.6 3.2 0.00 0.00 0.00 9 1019.3
20260501204041 17 90 3.2 4.8 0.00 0.00 0.00 9 1019.2
20260501203656 17 112 3.2 4.8 0.00 0.00 0.00 9 1019.2
20260501203620 17 112 3.2 4.8 0.00 0.00 0.00 9 1019.2
20260501203156 17 112 3.2 4.8 0.00 0.00 0.00 9 1019.1
20260501202701 17 90 1.6 3.2 0.00 0.00 0.00 9 1019.2
20260501202226 17 90 0.0 3.2 0.00 0.00 0.00 9 1019.1
20260501201820 17 90 1.6 3.2 0.00 0.00 0.00 9 1019.1
20260501201500 17 90 3.2 3.2 0.00 0.00 0.00 9 1019.0
20260501201401 17 90 3.2 4.8 0.00 0.00 0.00 9 1019.0
20260501200956 17 112 4.8 6.4 0.00 0.00 0.00 9 1018.8
20260501200612 17 112 3.2 4.8 0.00 0.00 0.00 9 1018.9
20260501200536 17 112 3.2 4.8 0.00 0.00 0.00 9 1018.7
20260501200111 17 90 3.2 4.8 0.00 0.00 0.00 9 1018.7
20260501195618 17 90 1.6 4.8 0.00 0.00 0.00 9 1018.7
20260501195616 17 90 1.6 4.8 0.00 0.00 0.00 9 1018.7
20260501195317 17 112 4.8 6.4 0.00 0.00 0.00 9 1018.7
20260501195202 17 112 4.8 6.4 0.00 0.00 0.00 9 1018.6
20260501194800 17 90 0.0 3.2 0.00 0.00 0.00 9 1018.5
20260501194454 17 112 3.2 4.8 0.00 0.00 0.00 9 1018.6
20260501194305 17 112 1.6 3.2 0.00 0.00 0.00 9 1018.4
20260501193856 18 112 1.6 3.2 0.00 0.00 0.00 9 1018.3
20260501193535 18 112 3.2 4.8 0.00 0.00 0.00 9 1018.4
20260501193406 18 112 0.0 4.8 0.00 0.00 0.00 9 1018.4
20260501192907 17 112 1.6 4.8 0.00 0.00 0.00 8 1018.4
20260501192639 17 112 3.2 4.8 0.00 0.00 0.00 8 1018.3
20260501192411 17 112 1.6 4.8 0.00 0.00 0.00 9 1018.3
20260501191952 17 112 1.6 3.2 0.00 0.00 0.00 9 1018.1
20260501191704 17 135 4.8 9.7 0.00 0.00 0.00 9 1018.0
20260501191533 17 112 4.8 9.7 0.00 0.00 0.00 9 1018.0
20260501191049 17 112 4.8 6.4 0.00 0.00 0.00 9 1018.0
20260501190704 17 112 4.8 6.4 0.00 0.00 0.00 9 1018.0
20260501190632 17 112 4.8 6.4 0.00 0.00 0.00 9 1018.0
20260501190207 17 90 4.8 6.4 0.00 0.00 0.00 9 1017.9
20260501185712 17 112 4.8 9.7 0.00 0.00 0.00 9 1017.8
20260501185442 17 112 9.7 12.9 0.00 0.00 0.00 9 1017.8
20260501184957 18 90 9.7 14.5 0.00 0.00 0.00 8 1017.8
20260501184553 18 135 6.4 9.7 0.00 0.00 0.00 8 1017.8
20260501184520 18 135 6.4 9.7 0.00 0.00 0.00 8 1017.8
20260501184035 18 90 8.0 9.7 0.00 0.00 0.00 8 1017.6
20260501183617 18 90 6.4 9.7 0.00 0.00 0.00 8 1017.7
20260501183152 18 135 6.4 9.7 0.00 0.00 0.00 8 1017.6
20260501182659 18 90 4.8 6.4 0.00 0.00 0.00 8 1017.5
20260501182657 18 90 4.8 6.4 0.00 0.00 0.00 8 1017.5
20260501182410 18 112 4.8 6.4 0.00 0.00 0.00 8 1017.6
20260501181951 18 90 3.2 4.8 0.00 0.00 0.00 8 1017.7
20260501181532 18 112 0.0 1.6 0.00 0.00 0.00 8 1017.7
20260501181047 18 112 1.6 4.8 0.00 0.00 0.00 8 1017.7
20260501180704 18 67 1.6 3.2 0.00 0.00 0.00 8 1017.6
20260501180630 18 90 1.6 3.2 0.00 0.00 0.00 8 1017.5